EW2270 Weather Reports


time (UTC)temp
C
wind
direction
speed
KPH
gust
KPH
rain 1hr
cm
rain 24hr
cm
rain mn
cm
humidity
%
barometer
mb
20260506103038 10 186 4.8 6.4 0.00 0.00 0.00 85 1011.9
20260506101529 10 186 1.6 3.2 0.00 0.00 0.00 84 1011.7
20260506100034 11 269 0.0 3.2 0.00 0.00 0.00 82 1011.7
20260506094531 12 148 0.0 4.8 0.00 0.00 0.00 77 1011.5
20260506093026 13 102 1.6 4.8 0.00 0.00 0.00 76 1011.4
20260506091520 12 98 6.4 8.0 0.00 0.00 0.00 81 1011.4
20260506090019 11 98 8.0 12.9 0.00 0.00 0.00 82 1011.4
20260506084522 11 87 3.2 8.0 0.00 0.00 0.00 85 1011.4
20260506083017 11 328 4.8 12.9 0.00 0.00 0.00 85 1011.4
20260506081514 11 290 8.0 9.7 0.00 0.00 0.00 81 1011.3
20260506073009 11 182 6.4 9.7 0.00 0.00 0.00 82 1010.9
20260506071510 11 110 0.0 4.8 0.00 0.00 0.00 83 1010.8
20260506061601 13 277 1.6 4.8 0.00 0.00 0.00 76 1010.6
20260506060123 13 277 1.6 3.2 0.00 0.00 0.00 76 1010.4
20260506044607 16 200 8.0 12.9 0.00 0.00 0.00 67 1010.0
20260506043052 15 216 8.0 9.7 0.00 0.00 0.00 72 1009.9
20260506041555 15 110 1.6 6.4 0.00 0.00 0.00 70 1009.7
20260506040051 16 107 6.4 9.7 0.00 0.00 0.00 69 1009.4
20260506034551 15 112 6.4 9.7 0.00 0.00 0.00 73 1009.3
20260506033050 16 140 0.0 4.8 0.00 0.00 0.00 71 1009.3
20260506031552 19 113 0.0 3.2 0.00 0.00 0.00 62 1009.1
20260506030049 22 96 3.2 6.4 0.00 0.00 0.00 50 1009.1
20260506024557 23 84 3.2 6.4 0.00 0.00 0.00 46 1009.0
20260506023047 23 70 3.2 6.4 0.00 0.00 0.00 43 1008.9
20260506021547 23 65 3.2 6.4 0.00 0.00 0.00 43 1008.9
20260506020047 24 61 4.8 9.7 0.00 0.00 0.00 41 1008.8
20260506014547 24 65 6.4 11.3 0.00 0.00 0.00 41 1008.8
20260506013046 24 52 6.4 12.9 0.00 0.00 0.00 39 1008.7
20260506011545 25 43 11.3 17.7 0.00 0.00 0.00 37 1008.7
20260506010046 25 54 8.0 16.1 0.00 0.00 0.00 34 1008.5
20260506004544 25 37 6.4 14.5 0.00 0.00 0.00 36 1008.6
20260506003042 25 82 6.4 17.7 0.00 0.00 0.00 37 1008.6
20260506001542 25 34 14.5 20.9 0.00 0.00 0.00 34 1008.6
20260506000041 25 352 12.9 22.5 0.00 0.00 0.00 34 1008.8
20260505234547 25 10 14.5 25.7 0.00 0.00 0.00 34 1008.9
20260505233038 25 330 11.3 20.9 0.00 0.00 0.00 35 1008.9
20260505231549 25 18 8.0 17.7 0.00 0.00 0.00 36 1008.9
20260505230050 25 20 8.0 17.7 0.00 0.00 0.00 36 1009.0
20260505224536 25 344 8.0 14.5 0.00 0.00 0.00 35 1009.1
20260505223032 25 8 3.2 16.1 0.00 0.00 0.00 36 1009.1
20260505221531 25 304 11.3 19.3 0.00 0.00 0.00 36 1009.2
20260505220032 25 311 9.7 17.7 0.00 0.00 0.00 36 1009.4
20260505214528 25 1 4.8 16.1 0.00 0.00 0.00 36 1009.5
20260505213025 25 331 8.0 19.3 0.00 0.00 0.00 39 1009.6
20260505211525 24 307 9.7 14.5 0.00 0.00 0.00 38 1009.7
20260505210024 24 313 8.0 12.9 0.00 0.00 0.00 39 1009.7
20260505204521 23 340 6.4 16.1 0.00 0.00 0.00 40 1009.8
20260505203021 23 323 8.0 17.7 0.00 0.00 0.00 43 1009.9
20260505201517 23 45 0.0 12.9 0.00 0.00 0.00 45 1010.0
20260505200018 23 284 8.0 14.5 0.00 0.00 0.00 45 1010.0
20260505194517 22 278 8.0 14.5 0.00 0.00 0.00 44 1010.1
20260505193013 22 219 8.0 14.5 0.00 0.00 0.00 45 1010.1
20260505191514 22 229 8.0 17.7 0.00 0.00 0.00 45 1010.3
20260505190011 22 308 9.7 17.7 0.00 0.00 0.00 49 1010.2
20260505184509 22 283 11.3 20.9 0.00 0.00 0.00 48 1010.4
20260505183010 21 305 4.8 17.7 0.00 0.00 0.00 48 1010.3
20260505181507 21 254 12.9 19.3 0.00 0.00 0.00 53 1010.3
20260505180008 21 238 6.4 11.3 0.00 0.00 0.00 51 1010.2
20260505174502 21 271 3.2 16.1 0.00 0.00 0.00 53 1010.3
20260505173202 20 274 3.2 12.9 0.00 0.00 0.00 53 1010.3
20260505171557 20 245 0.0 12.9 0.00 0.00 0.00 55 1010.3
20260505170057 20 255 6.4 12.9 0.00 0.00 0.00 56 1010.3
20260505164553 19 323 4.8 11.3 0.00 0.00 0.00 58 1010.2
20260505163050 19 292 3.2 11.3 0.00 0.00 0.00 57 1010.1
20260505161552 18 309 6.4 9.7 0.00 0.00 0.00 59 1010.1
20260505153040 18 5 0.0 1.6 0.00 0.00 0.00 64 1010.0
20260505151536 16 352 0.0 4.8 0.00 0.00 0.00 69 1010.0
20260505124516 8 122 0.0 3.2 0.00 0.00 0.00 88 1008.6
20260505123023 8 122 0.0 1.6 0.00 0.00 0.00 87 1008.5
20260505121507 9 122 1.6 3.2 0.00 0.00 0.00 85 1008.3
20260505120015 10 121 0.0 1.6 0.00 0.00 0.00 85 1008.1
20260505114503 10 121 0.0 1.6 0.00 0.00 0.00 84 1008.0
20260505113059 10 121 0.0 1.6 0.00 0.00 0.00 83 1007.9
20260505111556 11 121 0.0 1.6 0.00 0.00 0.00 81 1007.7